Total_Precipitation_Accumulation
1.98 2.37 2.74 3.21 3.67 4.17 4.92 5.60 6.17 6.25 6.09 5.72 5.34 5.10 4.64 4.32 4.05 3.79 3.59 3.33 3.04 2.94 3.30 3.06 3.41 3.21 3.16 3.00 2.94 3.05 3.13 2.84 3.04 3.37 2.92 2.38 2.08 1.95 1.83 1.82 1.88 1.81 1.91
1.92 2.29 2.82 3.13 3.51 4.03 4.58 5.00 5.06 4.83 4.75 4.80 4.69 4.44 4.45 4.28 4.18 3.99 3.81 3.32 3.11 3.01 2.84 3.04 2.86 2.83 2.95 2.75 2.66 2.86 2.88 2.59 2.87 3.12 3.19 2.61 2.37 2.00 1.50 1.64 1.78 1.88 2.10
1.54 1.89 2.47 2.80 3.01 3.51 3.83 3.86 3.79 3.69 3.82 3.93 3.88 3.93 4.18 4.22 4.24 4.13 3.86 3.49 3.28 3.14 2.99 2.88 2.71 2.67 2.51 2.64 2.67 2.73 2.82 2.80 2.70 2.74 3.04 2.75 2.41 2.02 1.59 1.52 1.76 2.08 2.34
1.29 1.60 1.94 2.19 2.48 2.76 2.88 2.85 2.93 3.02 3.15 3.27 3.29 3.16 3.20 3.46 3.71 3.89 3.94 3.83 3.54 3.28 2.99 2.81 2.61 2.46 2.33 2.61 2.31 2.42 2.73 2.93 2.62 2.54 2.51 2.46 2.56 2.45 2.09 1.68 1.56 1.84 2.05
1.32 1.53 1.66 1.83 1.95 2.02 2.13 2.16 2.45 2.84 3.04 3.18 3.30 3.18 2.86 2.89 2.97 3.10 3.26 3.24 3.23 3.04 2.71 2.61 2.55 2.38 2.25 2.29 2.29 2.57 2.59 2.61 2.54 2.59 2.52 2.59 2.75 2.57 2.42 2.08 1.95 2.08 1.98
1.03 1.26 1.55 1.65 1.64 1.61 1.75 1.95 2.26 2.74 3.03 3.13 3.09 3.04 2.95 2.96 2.90 2.87 2.93 2.80 2.77 2.66 2.42 2.32 2.43 2.30 2.21 2.24 2.24 2.37 2.44 2.60 2.67 2.65 2.60 2.65 2.65 2.68 2.85 2.51 2.27 2.25 1.98
0.81 0.81 1.01 1.28 1.26 1.23 1.41 1.67 1.86 2.26 2.55 2.69 2.67 2.60 2.72 2.83 2.70 2.54 2.48 2.40 2.26 2.15 2.10 2.20 2.34 2.19 2.16 2.25 2.39 2.42 2.41 2.55 2.62 2.55 2.62 2.70 2.64 2.77 2.92 2.84 2.49 2.27 2.03
0.61 0.59 0.66 0.84 1.06 1.07 1.15 1.28 1.52 1.80 2.06 2.16 2.29 2.42 2.58 2.68 2.60 2.74 2.50 2.34 2.04 1.87 1.93 2.16 2.24 2.17 2.09 2.09 2.49 2.48 2.50 2.61 2.59 2.48 2.78 2.80 2.59 2.79 2.97 3.07 3.08 2.75 2.56
0.52 0.52 0.59 0.79 0.85 0.87 0.93 1.05 1.27 1.47 1.67 1.85 2.06 2.16 2.15 2.15 2.32 2.47 2.43 2.25 2.17 1.93 1.99 2.07 2.27 2.36 2.43 2.49 2.63 2.57 2.58 2.78 2.75 2.71 2.90 2.87 2.70 2.71 2.86 3.05 3.25 3.29 3.08
0.58 0.54 0.55 0.64 0.69 0.73 0.84 1.05 1.23 1.26 1.49 1.84 2.07 2.01 2.04 1.99 2.15 2.16 2.14 2.15 2.08 2.03 2.06 2.08 2.17 2.32 2.43 2.49 2.65 2.66 2.71 2.89 2.91 2.97 3.02 2.89 2.64 2.79 2.84 2.96 3.24 3.50 3.54
0.63 0.60 0.59 0.59 0.70 0.63 0.71 0.88 1.01 1.17 1.48 1.81 2.08 2.13 2.04 2.05 2.10 1.96 1.93 2.03 2.04 2.01 2.07 2.08 2.07 2.08 2.23 2.43 2.64 2.60 2.76 2.88 2.93 2.89 2.81 2.72 2.75 2.91 2.85 2.99 3.15 3.38 3.61
0.51 0.48 0.47 0.53 0.51 0.50 0.60 0.91 1.23 1.58 1.77 2.06 2.40 2.48 2.24 2.04 1.90 1.75 1.74 1.88 2.04 2.09 2.08 2.07 2.07 2.01 2.12 2.36 2.52 2.63 2.87 3.00 2.90 2.80 2.77 2.67 2.80 2.90 2.88 2.96 2.95 3.02 3.31
0.53 0.51 0.46 0.54 0.53 0.51 0.53 0.67 0.84 1.20 1.55 1.92 2.27 2.28 2.02 1.79 1.74 1.73 1.75 1.85 2.02 2.05 2.03 2.06 2.13 2.22 2.33 2.48 2.59 2.70 2.89 2.87 2.75 2.75 2.67 2.57 2.67 2.63 2.69 2.72 2.72 2.71 2.80
0.65 0.59 0.56 0.55 0.55 0.55 0.53 0.64 0.75 0.84 1.06 1.52 1.87 1.84 1.67 1.61 1.62 1.64 1.67 1.68 1.76 1.80 1.85 2.06 2.27 2.41 2.54 2.63 2.66 2.67 2.66 2.65 2.55 2.44 2.37 2.39 2.53 2.64 2.63 2.54 2.52 2.58 2.71
0.65 0.61 0.60 0.67 0.69 0.73 0.74 0.75 0.79 0.82 1.01 1.48 1.72 1.67 1.59 1.61 1.54 1.51 1.62 1.69 1.74 1.76 1.98 2.14 2.23 2.28 2.33 2.39 2.52 2.51 2.43 2.42 2.32 2.23 2.07 2.11 2.43 2.59 2.55 2.35 2.45 2.52 2.58
0.64 0.62 0.54 0.64 0.74 0.81 0.83 0.84 0.91 0.97 1.10 1.42 1.65 1.62 1.54 1.51 1.41 1.47 1.58 1.70 1.80 1.97 2.14 2.12 2.10 2.06 1.77 1.88 1.99 2.03 2.08 2.12 2.10 1.99 1.93 1.93 2.01 2.05 2.09 2.08 2.09 2.16 2.23
0.62 0.62 0.66 0.74 0.93 0.87 0.88 0.96 0.91 0.98 1.15 1.46 1.67 1.68 1.60 1.55 1.49 1.45 1.63 1.79 1.98 2.17 2.26 2.23 2.17 2.01 1.91 1.80 1.69 1.68 1.75 1.91 1.93 1.95 2.02 1.75 1.58 1.71 1.74 1.87 1.86 1.79 1.88
0.70 0.77 0.75 0.81 0.89 0.88 0.93 0.99 1.01 1.05 1.20 1.43 1.66 1.73 1.67 1.69 1.77 1.78 1.84 2.02 2.24 2.39 2.40 2.38 2.28 2.18 2.08 1.98 1.80 1.77 1.69 1.80 1.83 1.84 1.86 1.82 1.69 1.65 1.76 1.84 1.77 1.62 1.59
0.81 0.86 0.95 0.99 1.06 1.06 1.01 1.04 1.19 1.23 1.31 1.39 1.61 1.74 1.79 1.87 1.89 1.95 2.17 2.35 2.50 2.53 2.51 2.56 2.48 2.37 2.35 2.18 1.84 1.66 1.58 1.75 1.79 1.80 1.75 1.71 1.63 1.68 1.56 1.51 1.53 1.52 1.52
0.97 0.97 1.04 1.10 1.11 1.15 1.21 1.23 1.35 1.51 1.64 1.72 1.81 2.03 2.24 2.41 2.47 2.53 2.58 2.63 2.73 2.68 2.68 2.61 2.60 2.49 2.43 2.34 1.82 1.54 1.47 1.65 1.72 1.79 1.74 1.62 1.47 1.46 1.32 1.30 1.45 1.45 1.45
0.92 1.01 1.04 1.14 1.21 1.22 1.36 1.59 1.71 1.80 1.96 2.12 2.18 2.38 2.71 2.90 2.89 2.94 2.83 2.72 2.72 2.75 2.75 2.65 2.56 2.48 2.39 2.29 1.85 1.65 1.59 1.74 1.83 1.79 1.73 1.66 1.53 1.33 1.28 1.22 1.27 1.35 1.34
0.86 0.97 1.05 1.13 1.31 1.56 1.75 2.00 2.14 2.16 2.24 2.39 2.58 2.83 3.08 2.96 2.87 3.02 2.92 2.90 2.96 2.95 2.84 2.74 2.63 2.62 2.53 2.28 1.94 1.70 1.70 1.79 1.87 1.92 1.89 1.79 1.57 1.31 1.23 1.15 1.14 1.13 1.05
0.85 0.94 1.04 1.21 1.41 1.70 2.07 2.30 2.35 2.48 2.52 2.59 2.75 2.88 2.97 3.09 3.22 3.27 3.14 3.05 3.02 2.96 2.77 2.66 2.49 2.39 2.45 2.42 1.99 1.69 1.71 1.76 1.76 1.91 1.97 1.71 1.46 1.29 1.14 1.14 1.14 1.02 0.92
0.93 0.98 1.09 1.28 1.56 1.85 2.18 2.32 2.37 2.39 2.41 2.46 2.48 2.59 2.73 2.86 2.98 3.23 3.26 3.14 2.97 2.86 2.76 2.68 2.50 2.38 2.37 2.33 1.99 1.67 1.63 1.70 1.66 1.72 1.80 1.65 1.47 1.32 1.18 1.13 1.09 1.03 1.07
1.02 1.12 1.22 1.32 1.46 1.71 1.97 2.07 2.22 2.29 2.44 2.48 2.43 2.38 2.41 2.55 2.69 2.80 2.89 2.83 2.77 2.58 2.45 2.30 2.21 2.15 2.15 2.16 1.95 1.71 1.64 1.73 1.80 1.77 1.76 1.71 1.56 1.43 1.32 1.29 1.33 1.37 1.36
0.99 1.11 1.24 1.40 1.54 1.70 1.89 1.99 2.15 2.27 2.38 2.39 2.27 2.26 2.25 2.32 2.37 2.38 2.33 2.20 2.10 1.93 1.72 1.61 1.55 1.54 1.59 1.73 1.59 1.46 1.51 1.67 1.78 1.66 1.60 1.69 1.67 1.58 1.50 1.46 1.47 1.47 1.43